| time (UTC) | temp C | wind direction | speed KPH | gust KPH | rain 1hr cm | rain 24hr cm | rain mn cm | humidity % | barometer mb |
| 20260502130439 | 11 | 80 | 0.0 | 1.6 | 0.00 | 0.03 | 0.03 | 99 | 1019.4 |
| 20260502123422 | 10 | 81 | 0.0 | 0.0 | 0.00 | 0.03 | 0.03 | 98 | 1019.2 |
| 20260502122919 | 10 | 81 | 0.0 | 0.0 | 0.00 | 0.03 | 0.03 | 98 | 1019.1 |
| 20260502122415 | 10 | 81 | 0.0 | 0.0 | 0.00 | 0.03 | 0.03 | 98 | 1019.0 |
| 20260502121914 | 10 | 81 | 0.0 | 0.0 | 0.00 | 0.03 | 0.03 | 98 | 1018.8 |
| 20260502121410 | 10 | 81 | 0.0 | 0.0 | 0.00 | 0.03 | 0.03 | 98 | 1018.9 |
| 20260502120908 | 10 | 81 | 0.0 | 0.0 | 0.00 | 0.03 | 0.03 | 98 | 1018.8 |
| 20260502120404 | 10 | 81 | 0.0 | 0.0 | 0.00 | 0.03 | 0.03 | 98 | 1018.6 |
| 20260502115901 | 9 | 81 | 0.0 | 0.0 | 0.00 | 0.03 | 0.03 | 98 | 1018.7 |
| 20260502115358 | 9 | 81 | 0.0 | 0.0 | 0.00 | 0.03 | 0.03 | 98 | 1018.6 |
| 20260502114854 | 9 | 81 | 0.0 | 0.0 | 0.00 | 0.03 | 0.03 | 98 | 1018.5 |
| 20260502114352 | 9 | 81 | 0.0 | 0.0 | 0.00 | 0.03 | 0.03 | 98 | 1018.3 |
| 20260502113848 | 9 | 81 | 0.0 | 0.0 | 0.00 | 0.03 | 0.03 | 98 | 1018.2 |
| 20260502113346 | 8 | 81 | 0.0 | 0.0 | 0.18 | 0.03 | 0.03 | 98 | 1018.1 |
| 20260502112844 | 8 | 81 | 0.0 | 0.0 | 0.18 | 0.03 | 0.03 | 98 | 1018.1 |
| 20260502112341 | 8 | 81 | 0.0 | 0.0 | 0.00 | 0.00 | 0.00 | 98 | 1018.1 |
| 20260502111839 | 8 | 81 | 0.0 | 0.0 | 0.00 | 0.00 | 0.00 | 98 | 1018.1 |
| 20260502111336 | 8 | 81 | 0.0 | 0.0 | 0.00 | 0.00 | 0.00 | 98 | 1017.9 |
| 20260502110834 | 9 | 81 | 0.0 | 0.0 | 0.00 | 0.00 | 0.00 | 98 | 1017.8 |
| 20260502110332 | 9 | 81 | 0.0 | 0.0 | 0.00 | 0.00 | 0.00 | 98 | 1018.0 |
| 20260502105829 | 9 | 81 | 0.0 | 0.0 | 0.00 | 0.00 | 0.00 | 98 | 1017.8 |
| 20260502105325 | 10 | 81 | 0.0 | 0.0 | 0.00 | 0.00 | 0.00 | 98 | 1017.7 |
| 20260502104823 | 10 | 81 | 0.0 | 0.0 | 0.00 | 0.00 | 0.00 | 98 | 1017.6 |
| 20260502104320 | 10 | 81 | 0.0 | 0.0 | 0.00 | 0.00 | 0.00 | 98 | 1017.6 |
| 20260502103818 | 10 | 81 | 0.0 | 0.0 | 0.00 | 0.00 | 0.00 | 98 | 1017.6 |
| 20260502103315 | 10 | 81 | 0.0 | 0.0 | 0.00 | 0.00 | 0.00 | 98 | 1017.6 |
| 20260502102812 | 10 | 81 | 0.0 | 0.0 | 0.00 | 0.00 | 0.00 | 98 | 1017.7 |
| 20260502102308 | 10 | 81 | 0.0 | 0.0 | 0.00 | 0.00 | 0.00 | 98 | 1017.5 |
| 20260502101806 | 10 | 81 | 0.0 | 0.0 | 0.00 | 0.00 | 0.00 | 98 | 1017.4 |
| 20260502101304 | 10 | 81 | 0.0 | 0.0 | 0.00 | 0.00 | 0.00 | 98 | 1017.3 |
| 20260502100802 | 10 | 81 | 0.0 | 0.0 | 0.00 | 0.00 | 0.00 | 98 | 1017.4 |
| 20260502100301 | 10 | 81 | 0.0 | 0.0 | 0.00 | 0.00 | 0.00 | 98 | 1017.3 |
| 20260502091235 | 10 | 81 | 0.0 | 0.0 | 0.00 | 0.00 | 0.00 | 98 | 1016.9 |
| 20260502090732 | 10 | 81 | 0.0 | 0.0 | 0.00 | 0.00 | 0.00 | 97 | 1017.0 |
| 20260502090229 | 10 | 81 | 0.0 | 0.0 | 0.00 | 0.00 | 0.00 | 97 | 1016.9 |
| 20260502071130 | 11 | 81 | 0.0 | 0.0 | 0.00 | 0.00 | 0.00 | 96 | 1016.8 |
| 20260502070627 | 11 | 81 | 0.0 | 0.0 | 0.00 | 0.00 | 0.00 | 96 | 1016.7 |
| 20260502070125 | 11 | 81 | 0.0 | 0.0 | 0.00 | 0.00 | 0.00 | 96 | 1016.6 |
| 20260502065623 | 11 | 81 | 0.0 | 0.0 | 0.00 | 0.00 | 0.00 | 96 | 1016.6 |
| 20260502065121 | 11 | 82 | 0.0 | 0.0 | 0.00 | 0.00 | 0.00 | 96 | 1016.6 |
| 20260502064619 | 11 | 81 | 1.6 | 3.2 | 0.00 | 0.00 | 0.00 | 96 | 1017.0 |
| 20260502064116 | 11 | 82 | 0.0 | 1.6 | 0.00 | 0.00 | 0.00 | 96 | 1017.1 |
| 20260502063614 | 11 | 82 | 0.0 | 0.0 | 0.00 | 0.00 | 0.00 | 96 | 1017.0 |
| 20260502063111 | 11 | 82 | 1.6 | 3.2 | 0.00 | 0.00 | 0.00 | 96 | 1016.8 |
| 20260502062608 | 11 | 89 | 0.0 | 0.0 | 0.00 | 0.00 | 0.00 | 96 | 1016.8 |
| 20260502062106 | 11 | 89 | 0.0 | 0.0 | 0.00 | 0.00 | 0.00 | 96 | 1016.8 |
| 20260502061604 | 11 | 89 | 0.0 | 0.0 | 0.00 | 0.00 | 0.00 | 96 | 1016.8 |
| 20260502061101 | 11 | 89 | 0.0 | 0.0 | 0.00 | 0.00 | 0.00 | 96 | 1016.8 |
| 20260502060556 | 11 | 89 | 0.0 | 0.0 | 0.00 | 0.00 | 0.00 | 96 | 1016.8 |
| 20260502060053 | 11 | 89 | 1.6 | 3.2 | 0.00 | 0.00 | 0.00 | 96 | 1016.8 |
| 20260502055550 | 11 | 89 | 0.0 | 1.6 | 0.00 | 0.00 | 0.00 | 95 | 1016.9 |
| 20260502055049 | 11 | 89 | 1.6 | 3.2 | 0.00 | 0.00 | 0.00 | 95 | 1016.8 |
| 20260502054547 | 11 | 91 | 0.0 | 0.0 | 0.00 | 0.00 | 0.00 | 95 | 1016.7 |
| 20260502054044 | 11 | 91 | 1.6 | 3.2 | 0.00 | 0.00 | 0.00 | 95 | 1016.6 |
| 20260502053541 | 11 | 91 | 0.0 | 0.0 | 0.00 | 0.00 | 0.00 | 95 | 1016.7 |
| 20260502053039 | 11 | 91 | 0.0 | 0.0 | 0.00 | 0.00 | 0.00 | 95 | 1016.7 |
| 20260502052537 | 11 | 92 | 0.0 | 0.0 | 0.00 | 0.00 | 0.00 | 94 | 1016.7 |
| 20260502052035 | 11 | 92 | 0.0 | 0.0 | 0.00 | 0.00 | 0.00 | 94 | 1016.8 |
| 20260502051532 | 11 | 92 | 1.6 | 1.6 | 0.00 | 0.00 | 0.00 | 94 | 1016.9 |
| 20260502051030 | 11 | 91 | 1.6 | 1.6 | 0.00 | 0.00 | 0.00 | 94 | 1016.6 |
| 20260502050526 | 11 | 92 | 1.6 | 3.2 | 0.00 | 0.00 | 0.00 | 94 | 1016.7 |
| 20260502050023 | 11 | 91 | 0.0 | 0.0 | 0.00 | 3.89 | 3.89 | 94 | 1016.4 |
| 20260502045520 | 11 | 91 | 1.6 | 3.2 | 0.00 | 3.89 | 3.89 | 94 | 1016.4 |
| 20260502045017 | 11 | 96 | 0.0 | 3.2 | 0.00 | 3.89 | 3.89 | 94 | 1016.4 |
| 20260502044513 | 11 | 110 | 0.0 | 1.6 | 0.00 | 3.89 | 3.89 | 94 | 1016.5 |
| 20260502044010 | 11 | 93 | 0.0 | 1.6 | 0.00 | 3.89 | 3.89 | 94 | 1016.4 |
| 20260502043508 | 11 | 96 | 1.6 | 3.2 | 0.00 | 3.89 | 3.89 | 94 | 1016.4 |
| 20260502043003 | 11 | 107 | 0.0 | 4.8 | 0.00 | 3.89 | 3.89 | 94 | 1016.1 |
| 20260502042459 | 11 | 120 | 0.0 | 1.6 | 0.00 | 3.89 | 3.89 | 94 | 1016.3 |
| 20260502041956 | 11 | 119 | 0.0 | 4.8 | 0.00 | 3.89 | 3.89 | 94 | 1016.5 |
| 20260502041454 | 11 | 101 | 3.2 | 3.2 | 0.00 | 3.89 | 3.89 | 94 | 1016.3 |
| 20260502040950 | 11 | 90 | 3.2 | 3.2 | 0.00 | 3.89 | 3.89 | 94 | 1016.6 |
| 20260502040447 | 11 | 106 | 0.0 | 1.6 | 0.00 | 3.89 | 3.89 | 94 | 1016.5 |
| 20260502035943 | 11 | 103 | 0.0 | 1.6 | 0.00 | 3.89 | 3.89 | 94 | 1016.6 |
| 20260502035440 | 11 | 107 | 0.0 | 0.0 | 0.00 | 3.89 | 3.89 | 94 | 1016.7 |
| 20260502034938 | 11 | 102 | 1.6 | 4.8 | 0.00 | 3.89 | 3.89 | 95 | 1016.7 |
| 20260502034436 | 11 | 110 | 1.6 | 1.6 | 0.00 | 3.89 | 3.89 | 94 | 1016.6 |
| 20260502033934 | 11 | 96 | 0.0 | 1.6 | 0.00 | 3.89 | 3.89 | 95 | 1016.6 |
| 20260502033431 | 11 | 104 | 0.0 | 3.2 | 0.00 | 3.89 | 3.89 | 95 | 1016.6 |
| 20260502032928 | 11 | 105 | 1.6 | 3.2 | 0.00 | 3.89 | 3.89 | 95 | 1016.5 |
| 20260502032425 | 11 | 102 | 0.0 | 1.6 | 0.00 | 3.89 | 3.89 | 95 | 1016.5 |
| 20260502031922 | 11 | 103 | 0.0 | 3.2 | 0.00 | 3.89 | 3.89 | 95 | 1016.5 |
| 20260502031420 | 11 | 131 | 1.6 | 1.6 | 0.00 | 3.89 | 3.89 | 95 | 1016.4 |
| 20260502030918 | 11 | 97 | 1.6 | 1.6 | 0.00 | 3.89 | 3.89 | 95 | 1016.3 |
| 20260502030416 | 11 | 85 | 3.2 | 4.8 | 0.00 | 3.89 | 3.89 | 95 | 1016.3 |
| 20260502025914 | 11 | 109 | 0.0 | 1.6 | 0.00 | 3.89 | 3.89 | 96 | 1016.2 |
| 20260502025410 | 11 | 103 | 1.6 | 3.2 | 0.00 | 3.89 | 3.89 | 96 | 1016.1 |
| 20260502024908 | 11 | 102 | 0.0 | 6.4 | 0.00 | 3.89 | 3.89 | 96 | 1016.2 |
| 20260502024406 | 11 | 115 | 1.6 | 9.7 | 0.00 | 3.89 | 3.89 | 96 | 1016.2 |
| 20260502023904 | 11 | 91 | 0.0 | 1.6 | 0.00 | 3.89 | 3.89 | 96 | 1016.2 |
| 20260502023401 | 11 | 95 | 1.6 | 3.2 | 0.00 | 3.89 | 3.89 | 96 | 1016.0 |
| 20260502022859 | 11 | 88 | 3.2 | 3.2 | 0.00 | 3.89 | 3.89 | 96 | 1015.8 |
| 20260502022355 | 11 | 102 | 1.6 | 3.2 | 0.00 | 3.89 | 3.89 | 96 | 1015.9 |
| 20260502021852 | 11 | 94 | 0.0 | 1.6 | 0.00 | 3.89 | 3.89 | 96 | 1015.8 |
| 20260502021349 | 11 | 86 | 0.0 | 3.2 | 0.00 | 3.89 | 3.89 | 96 | 1015.9 |
| 20260502020846 | 11 | 89 | 1.6 | 3.2 | 0.00 | 3.89 | 3.89 | 96 | 1015.7 |
| 20260502020344 | 11 | 87 | 1.6 | 9.7 | 0.00 | 3.89 | 3.89 | 96 | 1015.8 |
| 20260502015841 | 11 | 82 | 3.2 | 6.4 | 0.00 | 3.89 | 3.89 | 96 | 1015.8 |
| 20260502015338 | 11 | 59 | 4.8 | 6.4 | 0.00 | 3.89 | 3.89 | 96 | 1015.8 |
| 20260502014835 | 11 | 93 | 4.8 | 9.7 | 0.00 | 3.89 | 3.89 | 96 | 1015.6 |
| 20260502014332 | 11 | 70 | 1.6 | 11.3 | 0.00 | 3.89 | 3.89 | 96 | 1015.4 |
| 20260502013828 | 11 | 91 | 1.6 | 11.3 | 0.00 | 3.89 | 3.89 | 96 | 1015.5 |
| 20260502013324 | 11 | 89 | 1.6 | 6.4 | 0.00 | 3.89 | 3.89 | 96 | 1015.4 |
| 20260502012820 | 11 | 99 | 1.6 | 4.8 | 0.00 | 3.89 | 3.89 | 96 | 1015.4 |
| 20260502012319 | 11 | 77 | 4.8 | 4.8 | 0.13 | 3.89 | 3.89 | 96 | 1015.4 |
| 20260502011815 | 11 | 106 | 3.2 | 6.4 | 0.30 | 3.89 | 3.89 | 96 | 1014.6 |
| 20260502011311 | 11 | 86 | 3.2 | 11.3 | 0.18 | 3.86 | 3.86 | 96 | 1014.8 |
| 20260502010809 | 11 | 115 | 4.8 | 12.9 | 0.13 | 3.84 | 3.84 | 96 | 1014.8 |
| 20260502010305 | 11 | 112 | 0.0 | 6.4 | 0.13 | 3.84 | 3.84 | 96 | 1015.3 |
| 20260502005802 | 11 | 100 | 1.6 | 3.2 | 0.00 | 3.81 | 3.81 | 96 | 1015.4 |
| 20260502005300 | 11 | 94 | 1.6 | 3.2 | 0.00 | 3.81 | 3.81 | 96 | 1015.2 |
| 20260502004756 | 11 | 107 | 0.0 | 4.8 | 0.18 | 3.81 | 3.81 | 96 | 1015.3 |
| 20260502004253 | 11 | 112 | 0.0 | 6.4 | 0.18 | 3.81 | 3.81 | 96 | 1015.3 |
| 20260502003751 | 11 | 119 | 1.6 | 4.8 | 0.13 | 3.78 | 3.78 | 96 | 1015.4 |
| 20260502003248 | 11 | 44 | 3.2 | 4.8 | 0.13 | 3.78 | 3.78 | 96 | 1015.2 |
| 20260502002743 | 11 | 97 | 0.0 | 3.2 | 0.00 | 3.76 | 3.76 | 96 | 1015.1 |
| 20260502002241 | 11 | 75 | 3.2 | 11.3 | 0.18 | 3.76 | 3.76 | 96 | 1015.1 |
| 20260502001738 | 11 | 85 | 3.2 | 4.8 | 0.13 | 3.73 | 3.73 | 96 | 1015.2 |
| 20260502001237 | 11 | 74 | 3.2 | 9.7 | 0.43 | 3.73 | 3.73 | 96 | 1015.1 |
| 20260502000734 | 11 | 77 | 3.2 | 9.7 | 0.48 | 3.73 | 3.73 | 96 | 1014.7 |
| 20260502000233 | 11 | 75 | 3.2 | 4.8 | 0.30 | 3.68 | 3.68 | 96 | 1014.8 |
| 20260501235732 | 11 | 95 | 0.0 | 3.2 | 0.13 | 3.63 | 3.63 | 96 | 1014.6 |
| 20260501235228 | 11 | 113 | 0.0 | 1.6 | 0.00 | 3.63 | 3.63 | 96 | 1014.6 |
| 20260501234724 | 11 | 65 | 3.2 | 11.3 | 0.00 | 3.63 | 3.63 | 96 | 1014.0 |
| 20260501234222 | 11 | 94 | 1.6 | 6.4 | 0.00 | 3.63 | 3.63 | 96 | 1014.0 |
| 20260501233719 | 11 | 359 | 6.4 | 6.4 | 0.18 | 3.63 | 3.63 | 96 | 1014.1 |
| 20260501233217 | 11 | 86 | 3.2 | 3.2 | 0.18 | 3.63 | 3.63 | 96 | 1013.8 |
| 20260501232712 | 11 | 109 | 0.0 | 4.8 | 0.18 | 3.58 | 3.58 | 96 | 1013.5 |
| 20260501232210 | 11 | 347 | 4.8 | 6.4 | 0.18 | 3.58 | 3.58 | 96 | 1013.4 |
| 20260501231707 | 11 | 75 | 6.4 | 6.4 | 0.00 | 3.56 | 3.56 | 96 | 1013.1 |
| 20260501231205 | 12 | 6 | 11.3 | 14.5 | 0.00 | 3.56 | 3.56 | 96 | 1012.8 |
| 20260501230703 | 12 | 96 | 6.4 | 11.3 | 0.13 | 3.56 | 3.56 | 96 | 1012.8 |
| 20260501230202 | 12 | 66 | 1.6 | 4.8 | 0.13 | 3.56 | 3.56 | 96 | 1012.6 |
| 20260501225659 | 12 | 100 | 3.2 | 4.8 | 0.00 | 3.53 | 3.53 | 96 | 1012.6 |
| 20260501225155 | 12 | 75 | 3.2 | 4.8 | 0.18 | 3.53 | 3.53 | 96 | 1012.5 |
| 20260501224652 | 12 | 96 | 1.6 | 4.8 | 0.18 | 3.53 | 3.53 | 96 | 1012.4 |
| 20260501224149 | 12 | 97 | 1.6 | 9.7 | 0.13 | 3.51 | 3.51 | 96 | 1012.7 |
| 20260501223646 | 12 | 97 | 1.6 | 9.7 | 0.13 | 3.51 | 3.51 | 96 | 1012.6 |
| 20260501223142 | 12 | 53 | 6.4 | 14.5 | 0.18 | 3.48 | 3.48 | 96 | 1012.6 |
| 20260501222638 | 12 | 108 | 0.0 | 11.3 | 0.00 | 3.45 | 3.45 | 95 | 1012.6 |
| 20260501222135 | 12 | 42 | 6.4 | 9.7 | 0.00 | 3.45 | 3.45 | 96 | 1013.1 |
| 20260501221632 | 12 | 102 | 0.0 | 6.4 | 0.00 | 3.45 | 3.45 | 96 | 1013.0 |
| 20260501221130 | 12 | 112 | 0.0 | 3.2 | 0.00 | 3.45 | 3.45 | 96 | 1012.9 |
| 20260501220627 | 12 | 113 | 3.2 | 6.4 | 0.13 | 3.45 | 3.45 | 95 | 1012.7 |
| 20260501220124 | 12 | 108 | 0.0 | 3.2 | 0.30 | 3.45 | 3.45 | 95 | 1012.4 |
| 20260501215621 | 12 | 104 | 0.0 | 3.2 | 0.30 | 3.43 | 3.43 | 95 | 1012.6 |
| 20260501215116 | 12 | 74 | 4.8 | 6.4 | 0.13 | 3.40 | 3.40 | 95 | 1012.9 |
| 20260501214611 | 12 | 108 | 0.0 | 6.4 | 0.00 | 3.38 | 3.38 | 95 | 1012.8 |
| 20260501214107 | 12 | 95 | 0.0 | 6.4 | 0.00 | 3.38 | 3.38 | 95 | 1013.0 |
| 20260501213604 | 12 | 102 | 1.6 | 4.8 | 0.18 | 3.38 | 3.38 | 95 | 1012.9 |
| 20260501213100 | 12 | 113 | 1.6 | 4.8 | 0.30 | 3.38 | 3.38 | 95 | 1012.5 |
| 20260501212556 | 12 | 14 | 1.6 | 12.9 | 0.13 | 3.35 | 3.35 | 95 | 1012.5 |
| 20260501212053 | 12 | 91 | 4.8 | 6.4 | 0.00 | 3.33 | 3.33 | 95 | 1012.5 |
| 20260501211550 | 12 | 81 | 1.6 | 11.3 | 0.18 | 3.33 | 3.33 | 95 | 1012.1 |
| 20260501211049 | 12 | 110 | 1.6 | 9.7 | 0.00 | 3.30 | 3.30 | 95 | 1012.0 |
| 20260501210544 | 12 | 123 | 3.2 | 6.4 | 0.00 | 3.30 | 3.30 | 95 | 1011.6 |
| 20260501210041 | 12 | 164 | 3.2 | 6.4 | 0.00 | 3.30 | 3.30 | 95 | 1011.2 |
| 20260501205538 | 12 | 143 | 3.2 | 12.9 | 0.00 | 3.30 | 3.30 | 96 | 1011.6 |
| 20260501205036 | 12 | 45 | 3.2 | 11.3 | 0.18 | 3.30 | 3.30 | 95 | 1011.8 |
| 20260501204531 | 12 | 97 | 4.8 | 6.4 | 0.18 | 3.30 | 3.30 | 96 | 1011.8 |
| 20260501204027 | 12 | 56 | 3.2 | 14.5 | 0.13 | 3.28 | 3.28 | 95 | 1011.6 |
| 20260501203524 | 12 | 44 | 3.2 | 4.8 | 0.13 | 3.28 | 3.28 | 96 | 1012.0 |
| 20260501203022 | 12 | 83 | 4.8 | 12.9 | 0.18 | 3.25 | 3.25 | 95 | 1012.2 |
| 20260501202519 | 12 | 79 | 6.4 | 11.3 | 0.30 | 3.25 | 3.25 | 95 | 1012.9 |
| 20260501202015 | 12 | 101 | 3.2 | 6.4 | 0.13 | 3.23 | 3.23 | 95 | 1013.1 |
| 20260501201513 | 13 | 88 | 3.2 | 6.4 | 0.30 | 3.20 | 3.20 | 95 | 1013.5 |
| 20260501201009 | 13 | 109 | 0.0 | 4.8 | 0.30 | 3.17 | 3.17 | 95 | 1013.6 |
| 20260501200506 | 13 | 87 | 0.0 | 3.2 | 0.48 | 3.15 | 3.15 | 94 | 1013.9 |
| 20260501200004 | 13 | 108 | 3.2 | 4.8 | 0.61 | 3.12 | 3.12 | 94 | 1014.2 |
| 20260501195500 | 13 | 108 | 3.2 | 4.8 | 0.43 | 3.07 | 3.07 | 94 | 1014.2 |
| 20260501194956 | 13 | 102 | 1.6 | 3.2 | 0.30 | 3.02 | 3.02 | 93 | 1013.9 |
| 20260501194452 | 13 | 101 | 0.0 | 3.2 | 0.18 | 3.02 | 3.02 | 93 | 1013.5 |
| 20260501193948 | 13 | 2 | 9.7 | 14.5 | 0.00 | 2.97 | 2.97 | 92 | 1013.1 |
| 20260501193446 | 13 | 90 | 1.6 | 3.2 | 0.00 | 2.97 | 2.97 | 92 | 1012.4 |
| 20260501192944 | 13 | 104 | 4.8 | 12.9 | 0.00 | 2.97 | 2.97 | 92 | 1011.8 |
| 20260501192441 | 14 | 105 | 3.2 | 6.4 | 0.00 | 2.97 | 2.97 | 92 | 1011.4 |
| 20260501191938 | 14 | 83 | 3.2 | 6.4 | 0.00 | 2.97 | 2.97 | 92 | 1011.3 |
| 20260501191435 | 14 | 101 | 1.6 | 14.5 | 0.00 | 2.97 | 2.97 | 92 | 1010.7 |
| 20260501190932 | 14 | 60 | 3.2 | 4.8 | 0.00 | 2.97 | 2.97 | 93 | 1010.4 |
| 20260501190428 | 14 | 110 | 3.2 | 11.3 | 0.00 | 2.97 | 2.97 | 93 | 1010.0 |
| 20260501185928 | 13 | 91 | 3.2 | 6.4 | 0.00 | 2.97 | 2.97 | 93 | 1010.0 |
| 20260501185425 | 13 | 340 | 4.8 | 11.3 | 0.00 | 2.97 | 2.97 | 94 | 1009.8 |
| 20260501184921 | 14 | 79 | 6.4 | 12.9 | 0.00 | 2.97 | 2.97 | 94 | 1009.7 |
| 20260501184417 | 14 | 65 | 3.2 | 9.7 | 0.00 | 2.97 | 2.97 | 95 | 1009.4 |
| 20260501183912 | 14 | 122 | 1.6 | 11.3 | 0.00 | 2.97 | 2.97 | 96 | 1009.7 |
| 20260501183410 | 14 | 41 | 9.7 | 11.3 | 0.00 | 2.97 | 2.97 | 96 | 1009.9 |
| 20260501182906 | 13 | 107 | 3.2 | 14.5 | 0.00 | 2.97 | 2.97 | 96 | 1010.5 |
| 20260501182403 | 13 | 61 | 3.2 | 11.3 | 0.00 | 2.97 | 2.97 | 97 | 1010.4 |
| 20260501181900 | 13 | 348 | 3.2 | 14.5 | 0.00 | 2.97 | 2.97 | 97 | 1010.7 |
| 20260501181357 | 13 | 111 | 3.2 | 11.3 | 0.00 | 2.97 | 2.97 | 97 | 1010.7 |
| 20260501180854 | 13 | 50 | 6.4 | 12.9 | 0.00 | 2.97 | 2.97 | 97 | 1011.2 |
| 20260501180350 | 13 | 110 | 1.6 | 11.3 | 0.18 | 2.97 | 2.97 | 97 | 1011.5 |
| 20260501175848 | 13 | 44 | 1.6 | 9.7 | 0.18 | 2.97 | 2.97 | 97 | 1011.9 |
| 20260501175344 | 13 | 119 | 4.8 | 12.9 | 0.00 | 2.95 | 2.95 | 97 | 1012.2 |
| 20260501174841 | 13 | 116 | 6.4 | 14.5 | 0.18 | 2.95 | 2.95 | 97 | 1012.0 |
| 20260501174338 | 13 | 152 | 3.2 | 6.4 | 0.30 | 2.95 | 2.95 | 97 | 1012.0 |
| 20260501173836 | 13 | 58 | 3.2 | 6.4 | 0.13 | 2.92 | 2.92 | 97 | 1012.4 |
| 20260501173334 | 13 | 40 | 1.6 | 9.7 | 0.18 | 2.90 | 2.90 | 97 | 1012.7 |
| 20260501172829 | 13 | 106 | 3.2 | 9.7 | 0.30 | 2.90 | 2.90 | 97 | 1013.0 |
| 20260501172324 | 12 | 115 | 0.0 | 9.7 | 0.13 | 2.87 | 2.87 | 97 | 1013.4 |
| 20260501171820 | 12 | 91 | 6.4 | 11.3 | 0.18 | 2.84 | 2.84 | 97 | 1013.2 |
| 20260501171317 | 12 | 104 | 1.6 | 4.8 | 0.30 | 2.84 | 2.84 | 97 | 1013.0 |
| 20260501170814 | 12 | 121 | 3.2 | 20.9 | 0.30 | 2.82 | 2.82 | 97 | 1012.9 |
| 20260501170311 | 12 | 48 | 4.8 | 14.5 | 0.30 | 2.79 | 2.79 | 97 | 1012.8 |
| 20260501165808 | 12 | 97 | 3.2 | 11.3 | 0.30 | 2.77 | 2.77 | 97 | 1012.9 |
| 20260501165306 | 12 | 69 | 3.2 | 22.5 | 0.30 | 2.74 | 2.74 | 97 | 1013.3 |
| 20260501164804 | 12 | 104 | 1.6 | 11.3 | 0.30 | 2.72 | 2.72 | 97 | 1013.5 |
| 20260501164300 | 12 | 52 | 4.8 | 6.4 | 0.48 | 2.69 | 2.69 | 97 | 1013.6 |
| 20260501163756 | 12 | 125 | 3.2 | 9.7 | 0.48 | 2.67 | 2.67 | 97 | 1013.5 |
| 20260501163254 | 12 | 64 | 4.8 | 6.4 | 0.30 | 2.62 | 2.62 | 97 | 1013.8 |
| 20260501162750 | 12 | 86 | 8.0 | 12.9 | 0.43 | 2.59 | 2.59 | 97 | 1013.8 |
| 20260501162247 | 12 | 101 | 1.6 | 14.5 | 0.61 | 2.57 | 2.57 | 97 | 1014.1 |
| 20260501161743 | 12 | 104 | 4.8 | 9.7 | 0.79 | 2.51 | 2.51 | 97 | 1014.5 |
| 20260501161241 | 12 | 100 | 1.6 | 11.3 | 0.43 | 2.44 | 2.44 | 97 | 1014.8 |
| 20260501160737 | 12 | 103 | 1.6 | 4.8 | 0.30 | 2.39 | 2.39 | 97 | 1015.1 |
| 20260501160234 | 12 | 87 | 6.4 | 9.7 | 0.30 | 2.36 | 2.36 | 97 | 1015.1 |
| 20260501155731 | 13 | 94 | 0.0 | 3.2 | 0.13 | 2.34 | 2.34 | 97 | 1014.9 |
| 20260501155228 | 13 | 102 | 0.0 | 4.8 | 0.18 | 2.31 | 2.31 | 97 | 1014.8 |
| 20260501154725 | 13 | 83 | 1.6 | 3.2 | 0.18 | 2.31 | 2.31 | 97 | 1014.6 |
| 20260501154222 | 12 | 54 | 1.6 | 6.4 | 0.30 | 2.29 | 2.29 | 97 | 1014.4 |
| 20260501153720 | 12 | 182 | 4.8 | 6.4 | 0.30 | 2.26 | 2.26 | 97 | 1014.7 |
| 20260501153217 | 12 | 77 | 8.0 | 11.3 | 0.30 | 2.24 | 2.24 | 97 | 1014.5 |
| 20260501152713 | 12 | 80 | 3.2 | 9.7 | 0.43 | 2.21 | 2.21 | 97 | 1014.3 |
| 20260501152210 | 13 | 271 | 8.0 | 16.1 | 0.30 | 2.16 | 2.16 | 97 | 1013.9 |
| 20260501151707 | 13 | 25 | 4.8 | 11.3 | 0.18 | 2.13 | 2.13 | 97 | 1014.1 |
| 20260501151204 | 13 | 79 | 4.8 | 9.7 | 0.13 | 2.11 | 2.11 | 97 | 1014.3 |
| 20260501150700 | 12 | 75 | 1.6 | 4.8 | 0.61 | 2.11 | 2.11 | 97 | 1014.5 |
| 20260501150156 | 12 | 81 | 6.4 | 11.3 | 0.61 | 2.06 | 2.06 | 97 | 1013.8 |
| 20260501145652 | 12 | 103 | 1.6 | 4.8 | 0.48 | 2.01 | 2.01 | 97 | 1013.2 |
| 20260501145151 | 13 | 81 | 3.2 | 4.8 | 0.61 | 1.98 | 1.98 | 97 | 1013.6 |
| 20260501144647 | 13 | 96 | 0.0 | 4.8 | 0.61 | 1.93 | 1.93 | 97 | 1014.4 |
| 20260501144141 | 13 | 98 | 0.0 | 0.0 | 0.43 | 1.88 | 1.88 | 97 | 1014.4 |
| 20260501143638 | 13 | 103 | 0.0 | 0.0 | 0.30 | 1.83 | 1.83 | 97 | 1014.6 |
| 20260501143136 | 13 | 97 | 0.0 | 0.0 | 0.13 | 1.78 | 1.78 | 97 | 1014.7 |
| 20260501142632 | 13 | 74 | 1.6 | 3.2 | 0.30 | 1.78 | 1.78 | 97 | 1014.4 |
| 20260501142129 | 13 | 113 | 1.6 | 3.2 | 0.30 | 1.75 | 1.75 | 97 | 1014.4 |
| 20260501141624 | 13 | 105 | 3.2 | 6.4 | 0.13 | 1.73 | 1.73 | 97 | 1014.3 |
| 20260501141123 | 13 | 96 | 1.6 | 4.8 | 0.18 | 1.70 | 1.70 | 97 | 1014.1 |
| 20260501140618 | 13 | 92 | 1.6 | 3.2 | 0.00 | 1.68 | 1.68 | 97 | 1014.0 |
| 20260501140115 | 12 | 85 | 3.2 | 11.3 | 0.18 | 1.68 | 1.68 | 97 | 1014.0 |
| 20260501135611 | 12 | 101 | 4.8 | 4.8 | 0.30 | 1.68 | 1.68 | 97 | 1013.7 |
| 20260501135109 | 12 | 102 | 0.0 | 9.7 | 0.30 | 1.65 | 1.65 | 97 | 1013.2 |
| 20260501134606 | 12 | 109 | 3.2 | 4.8 | 0.30 | 1.63 | 1.63 | 97 | 1012.5 |
| 20260501134102 | 12 | 114 | 1.6 | 4.8 | 0.30 | 1.60 | 1.60 | 97 | 1012.5 |
| 20260501133559 | 13 | 90 | 1.6 | 9.7 | 0.48 | 1.57 | 1.57 | 97 | 1012.8 |